Location: Unspecified
(0.0000°N, 0.0000°E)
Time: 14:29:45
(UTC+00:00)

Vanguard 3 - All Passes

Search period start: 25 April 2018 00:00
Search period end: 05 May 2018 00:00
Orbit: 508 x 3264 km, 33.3° (Epoch: 24 April)

Date Brightness Start Highest point End Pass type
(mag) Time Alt. Az. Time Alt. Az. Time Alt. Az.
25 Apr - 02:55:54 10° NW 03:04:30 54° NE 03:19:32 10° ESE visible
25 Apr - 05:07:35 10° WNW 05:19:27 59° SSW 05:38:05 10° SE visible
25 Apr - 07:24:56 10° WSW 07:38:25 28° SSW 07:54:09 10° SSE daylight
25 Apr - 09:49:54 10° SW 10:01:01 17° S 10:11:12 10° SSE daylight
25 Apr - 12:11:40 10° SSW 12:22:55 20° SSE 12:31:20 10° SE daylight
25 Apr - 14:27:56 10° SW 14:40:16 43° SSE 14:47:22 10° E daylight
25 Apr - 16:44:43 10° WSW 16:53:18 46° NW 16:58:23 10° NNE daylight
26 Apr - 01:43:47 10° NNW 01:50:09 28° NE 02:00:05 10° E visible
26 Apr - 03:53:26 10° WNW 04:03:17 84° SW 04:20:41 10° SE visible
26 Apr - 06:07:43 10° W 06:20:19 37° SSW 06:37:34 10° SE daylight
26 Apr - 08:29:13 10° SW 08:41:29 20° SSW 08:54:06 10° SSE daylight
26 Apr - 10:53:25 10° SSW 11:04:42 18° S 11:14:04 10° SE daylight
26 Apr - 13:11:11 10° SW 13:24:19 31° SSE 13:32:46 10° E daylight
26 Apr - 15:27:34 10° SW 15:39:25 87° SE 15:45:46 10° NE daylight
26 Apr - 17:47:20 10° WNW 17:50:53 14° NW 17:53:44 10° N daylight
27 Apr - 00:34:42 10° NNE 00:36:05 11° NE 00:37:36 10° NE visible
27 Apr - 02:40:16 10° NW 02:48:15 62° NE 03:02:39 10° ESE visible
27 Apr - 04:52:14 10° WNW 05:03:10 50° SSW 05:20:39 10° SE visible
27 Apr - 07:09:59 10° WSW 07:22:24 25° SSW 07:37:07 10° SSE daylight
27 Apr - 09:34:02 10° SW 09:45:26 17° S 09:55:59 10° SE daylight
27 Apr - 11:54:03 10° SSW 12:07:16 24° SSE 12:16:54 10° ESE daylight
27 Apr - 14:10:34 10° SW 14:24:31 54° SSE 14:32:19 10° ENE daylight
27 Apr - 16:28:25 10° WSW 16:37:26 38° NW 16:42:50 10° NNE daylight
28 Apr - 01:28:03 10° NNW 01:34:06 31° NE 01:43:50 10° E visible
28 Apr - 03:38:00 10° WNW 03:47:05 73° SSW 04:03:23 10° SE visible
28 Apr - 05:52:41 10° W 06:04:13 32° SSW 06:20:10 10° SSE daylight
28 Apr - 08:14:12 10° SW 08:25:45 19° S 08:37:50 10° SSE daylight
28 Apr - 10:36:21 10° SSW 10:49:03 20° S 10:59:35 10° SE daylight
28 Apr - 12:53:34 10° SW 13:08:32 38° SSE 13:17:54 10° E daylight
28 Apr - 15:10:37 10° WSW 15:23:30 78° NW 15:30:25 10° NE daylight
28 Apr - 17:32:15 10° WNW 17:35:06 12° NW 17:37:31 10° NNW daylight
29 Apr - 00:17:58 10° NNE 00:20:18 12° NE 00:23:02 10° ENE night (unlit)
29 Apr - 02:24:44 10° NW 02:32:06 72° NE 02:45:43 10° ESE visible
29 Apr - 04:37:03 10° W 04:47:05 42° SSW 05:03:08 10° SE visible
29 Apr - 06:55:14 10° WSW 07:06:31 22° SSW 07:20:04 10° SSE daylight
29 Apr - 09:18:00 10° SSW 09:29:49 18° S 09:40:55 10° SE daylight
29 Apr - 11:36:30 10° SSW 11:51:27 29° SSE 12:02:14 10° ESE daylight
29 Apr - 13:53:12 10° SW 14:08:35 66° SSE 14:17:07 10° ENE daylight
29 Apr - 16:12:07 10° WSW 16:21:28 33° NW 16:27:13 10° NNE daylight
30 Apr - 01:12:23 10° NNW 01:18:05 36° NE 01:27:32 10° ESE visible
30 Apr - 03:22:42 10° WNW 03:31:02 61° SSW 03:46:02 10° SE visible
30 Apr - 05:37:52 10° WSW 05:48:18 27° SSW 06:02:40 10° SSE daylight
30 Apr - 07:59:10 10° SW 08:10:06 18° S 08:21:44 10° SE daylight
30 Apr - 10:19:16 10° SSW 10:33:17 23° SSE 10:44:56 10° ESE daylight
30 Apr - 12:36:01 10° SW 12:52:34 46° SSE 13:02:51 10° E daylight
30 Apr - 14:53:41 10° WSW 15:07:26 66° NW 15:14:56 10° NE daylight
30 Apr - 17:17:32 10° NW 17:19:19 11° NW 17:20:56 10° NNW daylight
01 May - 00:01:41 10° NNE 00:04:30 14° NE 00:07:59 10° ENE night (unlit)
01 May - 02:09:18 10° NW 02:16:05 85° NE 02:28:45 10° SE visible
01 May - 04:22:03 10° W 04:31:11 35° SSW 04:45:34 10° SE visible
01 May - 06:40:38 10° SW 06:50:48 19° S 07:03:01 10° SSE daylight
01 May - 09:01:48 10° SSW 09:14:07 19° S 09:25:55 10° SE daylight
01 May - 11:19:01 10° SW 11:35:28 34° SSE 11:47:19 10° E daylight
01 May - 13:35:52 10° SW 13:52:29 78° SE 14:01:45 10° ENE daylight
01 May - 15:55:51 10° W 16:05:26 29° NW 16:11:30 10° NNE daylight
02 May - 00:56:47 10° NNW 01:02:09 42° NE 01:11:12 10° ESE visible
02 May - 03:07:32 10° WNW 03:15:10 49° SSW 03:28:38 10° SE visible
02 May - 05:23:16 10° WSW 05:32:32 23° SSW 05:45:07 10° SSE visible
02 May - 07:44:01 10° SSW 07:54:30 17° S 08:05:48 10° SE daylight
02 May - 10:02:11 10° SSW 10:17:22 26° SSE 10:30:07 10° ESE daylight
02 May - 12:18:31 10° SW 12:36:25 54° SSE 12:47:36 10° ENE daylight
02 May - 14:36:47 10° WSW 14:51:16 57° NW 14:59:22 10° NE daylight
02 May - 23:45:36 10° N 23:48:43 16° NE 23:52:43 10° E night (unlit)
03 May - 01:53:59 10° WNW 02:00:13 79° SW 02:11:47 10° SE visible
03 May - 04:07:17 10° WSW 04:15:27 29° SSW 04:27:55 10° SSE visible
03 May - 06:26:11 10° SW 06:35:12 17° S 06:45:59 10° SSE daylight
03 May - 08:45:27 10° SSW 08:58:21 20° SSE 09:10:55 10° SE daylight
03 May - 11:01:37 10° SW 11:19:18 39° SSE 11:32:12 10° E daylight
03 May - 13:18:35 10° SW 13:36:13 89° SE 13:46:16 10° NE daylight
03 May - 15:39:39 10° W 15:49:22 26° NW 15:55:44 10° NNE daylight
04 May - 00:41:16 10° NW 00:46:17 52° NE 00:54:51 10° ESE night (unlit)
04 May - 02:52:33 10° W 02:59:27 39° SSW 03:11:13 10° SE visible
04 May - 05:08:56 10° SW 05:16:56 19° S 05:27:28 10° SSE visible
04 May - 07:28:42 10° SSW 07:38:53 17° S 07:50:02 10° SE daylight
04 May - 09:45:09 10° SSW 10:01:16 29° SSE 10:15:06 10° ESE daylight
04 May - 12:01:07 10° SW 12:20:05 63° SSE 12:32:11 10° ENE daylight
04 May - 14:19:56 10° WSW 14:34:57 50° NW 14:43:41 10° NNE daylight
04 May - 23:29:40 10° N 23:32:56 19° NE 23:37:18 10° E night (unlit)
